星链-35544(STARLINK-35544)

导读 | 豆包AI

STARLINK-35544是美国于北京时间2025年10月8日发射的星链卫星,星链计划是SpaceX打造的低轨卫星互联网星座项目,该卫星将加入已大规模部署的星链星座网络中,为全球多地用户提供高速互联网接入服务,进一步拓展星链系统的覆盖范围与服务能力。

基本信息
目录编号:
65922
目录名称:
STARLINK-35544
国际标识:
2025-225N
轨道中心:
EARTH
卫星名称:
星链-35544
卫星全名:
星链-35544(STARLINK-35544)
卫星状态:
在轨 (已飞行178 天)
发射日期:
2025-10-08 UTC
国别 :
美国 (US)
星等 :
--
轨道信息
数据来源 国际轨道数据 AOE轨道数据
星历时间 2026-04-03T12:07:35+0800
1天前
查看轨道信息
2026-03-31T20:00:00+0800
3天前
查看轨道信息
半长轴 6853.303km 6853.399km
偏心率 0.0001272 0.0001083
轨道倾角 53.159° 53.160°
近地点辐角 92.095° 104.286°
升交点赤经 52.159° 64.569°
平近点角 268.020° 288.684°
近地点 474.294km 474.519km
远地点 476.038km 476.005km
周期 94.104分钟 94.106分钟
每日圈数 15.302165 15.301844
详细信息
固有亮度:
5
最大亮度:
2.5
卫星平台:
Starlink V1.0
覆盖范围:
全球
运营商:
太空探索技术公司
运营商所在国:
美国
制造商(研发单位):
太空探索技术公司
制造商所在国:
美国
使用方式:
暂无
卫星简介
Starlink 计划是 SpaceX 推出的全球卫星互联网项目,通过发射低轨道卫星,为全球尤其是偏远地区提供高速、低延迟的互联网服务。自 2019 年起,Starlink 已部署数千颗卫星,旨在缩小全球数字鸿沟,推动互联网普及。该项目还为军事、航空等行业提供通信支持,带来广泛经济效益。
2D轨道图
3D轨道图
轨道高度分析图
轨道倾角分析图
轨道综合分析图
查看轨道综合分析图